Regional Weather Roundup
Issued by NWS State College, PA

Home | Current Version | Previous Version | Text Only | Print | Product List | Glossary On
Versions: 1 2 3 4 5 6 7 8 9 10 11 12 13 14 15 16 17 18 19 20 21 22 23 24 25 26 27 28 29 30 31 32 33 34 35 36 37 38 39 40 41 42 43 44 45 46 47 48 49 50
000
ASUS41 KCTP 231210
RWRCTP

REGIONAL WEATHER ROUNDUP
NATIONAL WEATHER SERVICE STATE COLLEGE PA
800 AM EDT WED JUL 23 2014

Note: "fair" indicates few or no clouds below 12,000 feet with no
significant weather and/or obstructions to visibility.

* = STATION THAT DOES NOT REPORT PRECIPITATION /E.G. RAIN...SNOW...ETC/
    THUNDER OR FOG.

PAZ002>004-007>009-013>016-020>023-029>032-231300-
WESTERN PENNSYLVANIA

CITY           SKY/WX    TMP DP  RH WIND       PRES   REMARKS
ERIE           CLOUDY    76  67  73 SW9       29.92R
MEADVILLE      NOT AVBL
FRANKLIN*      CLOUDY    70  66  88 SW8       29.99F
NEW CASTLE       N/A     73  70  91 CALM      29.97F
BEAVER COUNTY  SUNNY     73  68  83 S3        30.00F
BUTLER*        CLOUDY    72  68  88 S7        30.02F
PITTSBURGH INT CLOUDY    74  70  87 SW7       30.01F
PITTSBURGH     CLOUDY    72  68  87 S7        30.01F FOG
INDIANA*       SUNNY     73  70  88 SW8       30.06F
LATROBE        LGT RAIN  72  72 100 SW7       30.03F
WASHINGTON CO* PTSUNNY   72  70  94 SW5       30.03F
$$

PAZ004>006-010>012-017>019-024>028-033>037-041-042-045-046-049>053-231300-
CENTRAL PENNSYLVANIA

CITY           SKY/WX    TMP DP  RH WIND       PRES   REMARKS
BRADFORD       CLOUDY    71  66  84 SW6       29.99F
DUBOIS         MOSUNNY   73  69  87 SW8       30.01F
CLEARFIELD     MOSUNNY   69  69 100 S7        30.02F FOG
JOHNSTOWN      MOSUNNY   70  66  87 SW8       30.07F
ALTOONA        MOSUNNY   74  70  87 S6        30.04F
STATE COLLEGE  MOSUNNY   72  70  94 CALM      30.00F
WILLIAMSPORT   MOSUNNY   73  68  84 CALM      29.97S
SELINSGROVE    SUNNY     75  71  87 S3        29.99F
FT INDIANTOWN  SUNNY     73  73 100 N1        30.01S
CAPITAL CITY   SUNNY     74  70  87 W3        30.00S
HARRISBURG     MOSUNNY   77  69  76 CALM      29.99S
YORK           SUNNY     75  70  84 W5        30.01R
$$

PAZ038>040-043-044-047-048-054-055-060>062-067>071-231300-
EASTERN PENNSYLVANIA

CITY           SKY/WX    TMP DP  RH WIND       PRES   REMARKS
SCRANTON       CLOUDY    75  68  78 SW8       30.00S
MOUNT POCONO   CLOUDY    69  67  93 W10       30.05S FOG
ALLENTOWN      SUNNY     75  67  76 SW5       30.01R
QUAKERTOWN*    SUNNY     73  68  83 CALM      30.01F
READING        SUNNY     76  67  73 SW5       30.00S
LANCASTER      SUNNY     74  68  81 SW5       30.01R
COATESVILLE    SUNNY     72  72 100 W3        30.03S
POTTSTOWN      SUNNY     73  68  84 S3        30.02S
BLUE BELL      MOSUNNY   73  70  88 S3        30.00F
DOYLESTOWN     SUNNY     72  68  87 SW3       30.00S
WILLOW GROVE   NOT AVBL
NORTH PHILA    MOSUNNY   77  67  71 SW6       30.02R
PHILADELPHIA   MOSUNNY   75  67  76 SW8       30.01R
$$



USA.gov is the U.S. government's official web portal to all federal, state and local government web resources and services.